星链-34472 (STARLINK-34472)

导读 | 星芒AI

STARLINK-34472 是 SpaceX Starlink 卫星互联网项目中的一颗低轨卫星,属于第6批 Starlink 卫星(Group 6)。该卫星于2023年10月发射,运行在约550公里高度的近地轨道,旨在为全球提供高速互联网服务。Starlink 卫星采用可再生推进系统和自动避碰技术,以减少太空碎片风险。该项目计划部署数万颗卫星,构建覆盖全球的宽带网络,尤其服务于偏远地区。STARLINK-34472 与其他 Starlink 卫星协同工作,提升网络连接的稳定性和覆盖范围。

基本信息
目录编号:
64434
目录名称:
STARLINK-34472
国际标识:
2025-129Y
轨道中心:
EARTH
卫星名称:
星链-34472
卫星全名:
星链-34472 (STARLINK-34472)
卫星状态:
在轨 (已飞行145 天)
发射日期:
2025-06-17 UTC
国别 :
美国 (US)
星等 :
--
轨道信息
数据来源 国际轨道数据 AOE轨道数据
星历时间 2025-11-08T23:19:00+0800
23小时前
查看轨道信息
2025-11-05T10:00:00+0800
4天前
查看轨道信息
半长轴 6950.133km 6950.222km
偏心率 0.0003194 0.0003173
轨道倾角 70.002° 70.004°
近地点辐角 271.760° 275.109°
升交点赤经 19.724° 28.685°
平近点角 88.320° 355.526°
近地点 569.778km 569.881km
远地点 574.218km 574.293km
周期 96.106分钟 96.108分钟
每日圈数 14.983496 14.983208
详细信息
固有亮度:
5
最大亮度:
2.5
卫星平台:
Starlink V1.0
覆盖范围:
全球
运营商:
太空探索技术公司
运营商所在国:
美国
制造商(研发单位):
太空探索技术公司
制造商所在国:
美国
使用方式:
暂无
卫星简介
Starlink 计划是 SpaceX 推出的全球卫星互联网项目,通过发射低轨道卫星,为全球尤其是偏远地区提供高速、低延迟的互联网服务。自 2019 年起,Starlink 已部署数千颗卫星,旨在缩小全球数字鸿沟,推动互联网普及。该项目还为军事、航空等行业提供通信支持,带来广泛经济效益。
2D轨道图
3D轨道图
轨道高度分析图
轨道倾角分析图
轨道综合分析图
查看轨道综合分析图